| time (UTC) | temp F | wind direction | speed knots | gust knots | rain 1hr in | rain 24hr in | rain mn in | humidity % | barometer mb |
| 20260904222516 | 59 | 276 | 19.1 | 24.3 | 0.00 | 0.39 | 0.00 | 86 | 1000.7 |
| 20260904221510 | 59 | 261 | 12.2 | 22.6 | 0.00 | 0.39 | 0.00 | 86 | 1000.6 |
| 20260904220515 | 59 | 267 | 13.0 | 22.6 | 0.00 | 0.39 | 0.00 | 87 | 1000.5 |
| 20260904213515 | 59 | 258 | 12.2 | 20.0 | 0.00 | 0.39 | 0.39 | 87 | 1000.3 |
| 20260904212515 | 58 | 275 | 13.9 | 21.7 | 0.00 | 0.40 | 0.39 | 87 | 1000.3 |
| 20260904211516 | 58 | 252 | 15.6 | 21.7 | 0.00 | 0.40 | 0.39 | 88 | 1000.1 |
| 20260904210516 | 58 | 260 | 14.8 | 21.7 | 0.00 | 0.40 | 0.39 | 88 | 1000.1 |
| 20260904203516 | 58 | 253 | 10.4 | 20.0 | 0.00 | 0.40 | 0.39 | 91 | 999.7 |
| 20260904202515 | 58 | 283 | 17.4 | 20.9 | 0.00 | 0.40 | 0.39 | 91 | 999.7 |
| 20260904200514 | 58 | 262 | 13.9 | 20.0 | 0.00 | 0.40 | 0.39 | 94 | 999.5 |
| 20260904193515 | 57 | 318 | 7.8 | 13.9 | 0.06 | 0.40 | 0.39 | 94 | 999.2 |
| 20260904191517 | 57 | 259 | 7.8 | 13.9 | 0.06 | 0.40 | 0.39 | 94 | 999.1 |
| 20260904190514 | 57 | 269 | 7.8 | 13.0 | 0.07 | 0.40 | 0.39 | 94 | 998.8 |
| 20260904184515 | 58 | 255 | 8.7 | 13.0 | 0.05 | 0.36 | 0.35 | 94 | 998.9 |
| 20260904175515 | 59 | 237 | 7.8 | 12.2 | 0.00 | 0.31 | 0.31 | 92 | 998.5 |
| 20260904173515 | 60 | 235 | 5.2 | 10.4 | 0.00 | 0.31 | 0.31 | 92 | 998.5 |
| 20260904170515 | 60 | 234 | 4.3 | 7.8 | 0.00 | 0.31 | 0.31 | 92 | 998.5 |
| 20260904165516 | 60 | 240 | 5.2 | 8.7 | 0.00 | 0.31 | 0.31 | 92 | 998.3 |
| 20260904163516 | 61 | 295 | 6.1 | 11.3 | 0.00 | 0.31 | 0.31 | 92 | 998.4 |
| 20260904161515 | 61 | 311 | 6.1 | 8.7 | 0.00 | 0.31 | 0.31 | 92 | 998.7 |
| 20260904160515 | 61 | 322 | 6.1 | 10.4 | 0.00 | 0.31 | 0.31 | 92 | 998.4 |
| 20260904154516 | 61 | 240 | 5.2 | 11.3 | 0.00 | 0.31 | 0.31 | 93 | 998.6 |
| 20260904153516 | 61 | 249 | 6.1 | 11.3 | 0.00 | 0.31 | 0.31 | 93 | 998.6 |
| 20260904145515 | 61 | 260 | 7.8 | 13.9 | 0.00 | 0.31 | 0.31 | 94 | 998.7 |
| 20260904144516 | 61 | 326 | 6.1 | 12.2 | 0.00 | 0.31 | 0.31 | 94 | 998.7 |
| 20260904143515 | 61 | 252 | 6.1 | 11.3 | 0.00 | 0.31 | 0.31 | 95 | 998.8 |
| 20260904141516 | 61 | 238 | 5.2 | 8.7 | 0.02 | 0.32 | 0.31 | 95 | 998.7 |
| 20260904133515 | 58 | 315 | 5.2 | 8.7 | 0.13 | 0.32 | 0.31 | 95 | 999.1 |
| 20260904132516 | 58 | 321 | 6.1 | 10.4 | 0.14 | 0.31 | 0.30 | 95 | 999.1 |
| 20260904131516 | 58 | 0 | 7.8 | 13.0 | 0.13 | 0.30 | 0.28 | 95 | 999.2 |
| 20260904124515 | 59 | 293 | 4.3 | 7.8 | 0.09 | 0.21 | 0.20 | 95 | 999.3 |
| 20260904123516 | 60 | 321 | 6.1 | 8.7 | 0.09 | 0.20 | 0.18 | 94 | 999.3 |
| 20260904121515 | 60 | 241 | 4.3 | 8.7 | 0.08 | 0.17 | 0.15 | 94 | 999.8 |
| 20260904115515 | 60 | 295 | 7.8 | 13.0 | 0.06 | 0.13 | 0.12 | 94 | 1000.0 |
| 20260904114516 | 61 | 220 | 6.1 | 12.2 | 0.05 | 0.12 | 0.10 | 94 | 1000.1 |
| 20260904113515 | 61 | 241 | 6.1 | 13.9 | 0.04 | 0.10 | 0.09 | 94 | 1000.2 |
| 20260904112515 | 61 | 224 | 5.2 | 11.3 | 0.03 | 0.09 | 0.08 | 94 | 1000.1 |
| 20260904110516 | 61 | 216 | 6.1 | 13.0 | 0.02 | 0.09 | 0.06 | 94 | 1000.1 |
| 20260904105515 | 61 | 221 | 7.8 | 12.2 | 0.02 | 0.08 | 0.06 | 94 | 1000.3 |
| 20260904104516 | 61 | 235 | 7.8 | 13.0 | 0.02 | 0.08 | 0.06 | 94 | 1000.3 |
| 20260904103525 | 61 | 204 | 8.7 | 13.9 | 0.02 | 0.07 | 0.05 | 94 | 1000.5 |
| 20260904101526 | 61 | 290 | 7.8 | 13.9 | 0.02 | 0.06 | 0.04 | 93 | 1000.8 |
| 20260904094526 | 61 | 223 | 8.7 | 13.9 | 0.02 | 0.06 | 0.03 | 93 | 1001.2 |
| 20260904084526 | 61 | 206 | 10.4 | 13.9 | 0.00 | 0.08 | 0.01 | 91 | 1002.3 |
| 20260904082514 | 61 | 198 | 10.4 | 13.9 | 0.00 | 0.09 | 0.01 | 90 | 1002.5 |
| 20260904081514 | 61 | 288 | 7.0 | 13.9 | 0.00 | 0.09 | 0.01 | 90 | 1002.6 |
| 20260904080515 | 61 | 298 | 7.8 | 13.0 | 0.00 | 0.09 | 0.01 | 90 | 1002.7 |
| 20260904071515 | 60 | 231 | 2.6 | 5.2 | 0.01 | 0.13 | 0.01 | 92 | 1003.1 |
| 20260904070514 | 60 | 224 | 2.6 | 6.1 | 0.01 | 0.13 | 0.01 | 92 | 1003.3 |
| 20260904064515 | 59 | 238 | 2.6 | 7.8 | 0.01 | 0.13 | 0.01 | 92 | 1003.6 |
| 20260904063515 | 59 | 240 | 4.3 | 7.0 | 0.01 | 0.13 | 0.01 | 91 | 1003.7 |
| 20260904061514 | 59 | 316 | 5.2 | 10.4 | 0.00 | 0.12 | 0.00 | 91 | 1004.0 |
| 20260904060515 | 59 | 295 | 7.8 | 11.3 | 0.00 | 0.12 | 0.00 | 90 | 1004.0 |
| 20260904051514 | 60 | 241 | 7.0 | 11.3 | 0.00 | 0.12 | 0.00 | 87 | 1004.5 |
| 20260904044515 | 60 | 264 | 6.1 | 11.3 | 0.00 | 0.18 | 0.00 | 86 | 1004.7 |
| 20260904042514 | 60 | 249 | 7.0 | 13.0 | 0.00 | 0.21 | 0.00 | 86 | 1004.7 |
| 20260904041516 | 60 | 257 | 5.2 | 13.9 | 0.00 | 0.26 | 0.00 | 86 | 1004.6 |
| 20260904040515 | 60 | 238 | 7.0 | 13.9 | 0.00 | 0.31 | 0.00 | 86 | 1004.4 |
| 20260904035515 | 60 | 253 | 8.7 | 13.0 | 0.00 | 0.34 | 0.00 | 86 | 1004.8 |
| 20260904034515 | 60 | 252 | 7.8 | 15.6 | 0.00 | 0.35 | 0.00 | 86 | 1004.9 |
| 20260904031514 | 60 | 244 | 9.6 | 13.9 | 0.00 | 0.38 | 0.00 | 86 | 1005.3 |
| 20260904030515 | 60 | 259 | 10.4 | 15.6 | 0.00 | 0.38 | 0.00 | 87 | 1005.3 |
| 20260904023514 | 61 | 242 | 9.6 | 18.2 | 0.00 | 0.38 | 0.00 | 87 | 1005.4 |
| 20260904020514 | 61 | 282 | 9.6 | 14.8 | 0.00 | 0.38 | 0.00 | 87 | 1005.7 |
| 20260904013514 | 61 | 248 | 11.3 | 17.4 | 0.00 | 0.38 | 0.00 | 89 | 1005.8 |
| 20260904012514 | 61 | 256 | 7.8 | 15.6 | 0.00 | 0.38 | 0.00 | 89 | 1005.8 |
| 20260904011515 | 61 | 262 | 12.2 | 17.4 | 0.00 | 0.38 | 0.00 | 89 | 1005.8 |
| 20260904010514 | 60 | 257 | 7.8 | 14.8 | 0.00 | 0.38 | 0.00 | 90 | 1005.8 |
| 20260904002515 | 61 | 242 | 10.4 | 14.8 | 0.00 | 0.38 | 0.00 | 90 | 1006.2 |
| 20260904001516 | 61 | 253 | 7.8 | 13.9 | 0.00 | 0.38 | 0.00 | 90 | 1006.3 |
| 20260904000515 | 61 | 248 | 6.1 | 14.8 | 0.00 | 0.38 | 0.00 | 90 | 1006.1 |
| 20260903235514 | 61 | 228 | 8.7 | 14.8 | 0.00 | 0.38 | 0.00 | 89 | 1005.9 |
| 20260903233515 | 61 | 252 | 9.6 | 13.9 | 0.00 | 0.38 | 0.00 | 90 | 1006.3 |
| 20260903225515 | 61 | 249 | 10.4 | 17.4 | 0.00 | 0.38 | 0.00 | 90 | 1006.3 |
| 20260903224516 | 61 | 258 | 9.6 | 13.9 | 0.00 | 0.38 | 0.00 | 90 | 1006.5 |